Year,Month,Day,Hour,Minute,Value (Times are PST for temperature in C)
2014,07,31,00,00,19.80
2014,07,31,00,01,19.80
2014,07,31,00,02,19.80
2014,07,31,00,03,19.80
2014,07,31,00,04,19.70
2014,07,31,00,05,19.70
2014,07,31,00,06,19.70
2014,07,31,00,07,19.70
2014,07,31,00,08,19.60
2014,07,31,00,09,19.60
2014,07,31,00,10,19.50
2014,07,31,00,11,19.40
2014,07,31,00,12,19.40
2014,07,31,00,13,19.40
2014,07,31,00,14,19.50
2014,07,31,00,15,19.50
2014,07,31,00,16,19.60
2014,07,31,00,17,19.60
2014,07,31,00,18,19.60
2014,07,31,00,19,19.70
2014,07,31,00,20,19.70
2014,07,31,00,21,19.70
2014,07,31,00,22,19.70
2014,07,31,00,23,19.70
2014,07,31,00,24,19.70
2014,07,31,00,25,19.70
2014,07,31,00,26,19.80
2014,07,31,00,27,19.80
2014,07,31,00,28,19.80
2014,07,31,00,29,19.80
2014,07,31,00,30,19.90
2014,07,31,00,31,20.00
2014,07,31,00,32,20.00
2014,07,31,00,33,20.00
2014,07,31,00,34,20.10
2014,07,31,00,35,20.10
2014,07,31,00,36,20.10
2014,07,31,00,37,20.10
2014,07,31,00,38,20.10
2014,07,31,00,39,20.10
2014,07,31,00,40,20.10
2014,07,31,00,41,20.10
2014,07,31,00,42,20.10
2014,07,31,00,43,20.10
2014,07,31,00,44,20.10
2014,07,31,00,45,20.10
2014,07,31,00,46,20.10
2014,07,31,00,47,20.10
2014,07,31,00,48,20.10
2014,07,31,00,49,20.10
2014,07,31,00,50,20.10
2014,07,31,00,51,20.00
2014,07,31,00,52,20.00
2014,07,31,00,53,20.00
2014,07,31,00,54,19.90
2014,07,31,00,55,19.90
2014,07,31,00,56,19.90
2014,07,31,00,57,19.90
2014,07,31,00,58,19.90
2014,07,31,00,59,19.80
2014,07,31,01,00,19.80
2014,07,31,01,01,19.80
2014,07,31,01,02,19.70
2014,07,31,01,03,19.70
2014,07,31,01,04,19.60
2014,07,31,01,05,19.50
2014,07,31,01,06,19.50
2014,07,31,01,07,19.40
2014,07,31,01,08,19.40
2014,07,31,01,09,19.30
2014,07,31,01,10,19.30
2014,07,31,01,11,19.20
2014,07,31,01,12,19.20
2014,07,31,01,13,19.20
2014,07,31,01,14,19.20
2014,07,31,01,15,19.20
2014,07,31,01,16,19.20
2014,07,31,01,17,19.20
2014,07,31,01,18,19.20
2014,07,31,01,19,19.20
2014,07,31,01,20,19.20
2014,07,31,01,21,19.20
2014,07,31,01,22,19.20
2014,07,31,01,23,19.20
2014,07,31,01,24,19.20
2014,07,31,01,25,19.10
2014,07,31,01,26,19.10
2014,07,31,01,27,19.10
2014,07,31,01,28,19.10
2014,07,31,01,29,19.10
2014,07,31,01,30,19.00
2014,07,31,01,31,19.00
2014,07,31,01,32,18.90
2014,07,31,01,33,18.90
2014,07,31,01,34,18.90
2014,07,31,01,35,18.90
2014,07,31,01,36,18.80
2014,07,31,01,37,18.80
2014,07,31,01,38,18.70
2014,07,31,01,39,18.70
2014,07,31,01,40,18.70
2014,07,31,01,41,18.70
2014,07,31,01,42,18.70
2014,07,31,01,43,18.70
2014,07,31,01,44,18.70
2014,07,31,01,45,18.70
2014,07,31,01,46,18.80
2014,07,31,01,47,18.80
2014,07,31,01,48,18.90
2014,07,31,01,49,19.00
2014,07,31,01,50,19.10
2014,07,31,01,51,19.20
2014,07,31,01,52,19.30
2014,07,31,01,53,19.40
2014,07,31,01,54,19.40
2014,07,31,01,55,19.40
2014,07,31,01,56,19.50
2014,07,31,01,57,19.50
2014,07,31,01,58,19.60
2014,07,31,01,59,19.60
2014,07,31,02,00,19.60
2014,07,31,02,01,19.60
2014,07,31,02,02,19.60
2014,07,31,02,03,19.60
2014,07,31,02,04,19.60
2014,07,31,02,05,19.60
2014,07,31,02,06,19.60
2014,07,31,02,07,19.60
2014,07,31,02,08,19.60
2014,07,31,02,09,19.60
2014,07,31,02,10,19.60
2014,07,31,02,11,19.60
2014,07,31,02,12,19.60
2014,07,31,02,13,19.60
2014,07,31,02,14,19.60
2014,07,31,02,15,19.50
2014,07,31,02,16,19.50
2014,07,31,02,17,19.40
2014,07,31,02,18,19.30
2014,07,31,02,19,19.20
2014,07,31,02,20,19.20
2014,07,31,02,21,19.10
2014,07,31,02,22,19.00
2014,07,31,02,23,19.00
2014,07,31,02,24,18.80
2014,07,31,02,25,18.70
2014,07,31,02,26,18.60
2014,07,31,02,27,18.50
2014,07,31,02,28,18.30
2014,07,31,02,29,18.20
2014,07,31,02,30,18.10
2014,07,31,02,31,18.00
2014,07,31,02,32,17.90
2014,07,31,02,33,17.80
2014,07,31,02,34,17.70
2014,07,31,02,35,17.70
2014,07,31,02,36,17.60
2014,07,31,02,37,17.60
2014,07,31,02,38,17.50
2014,07,31,02,39,17.50
2014,07,31,02,40,17.50
2014,07,31,02,41,17.40
2014,07,31,02,42,17.40
2014,07,31,02,43,17.40
2014,07,31,02,44,17.40
2014,07,31,02,45,17.50
2014,07,31,02,46,17.50
2014,07,31,02,47,17.50
2014,07,31,02,48,17.50
2014,07,31,02,49,17.60
2014,07,31,02,50,17.60
2014,07,31,02,51,17.60
2014,07,31,02,52,17.60
2014,07,31,02,53,17.60
2014,07,31,02,54,17.60
2014,07,31,02,55,17.60
2014,07,31,02,56,17.60
2014,07,31,02,57,17.60
2014,07,31,02,58,17.60
2014,07,31,02,59,17.60
2014,07,31,03,00,17.60
2014,07,31,03,01,17.60
2014,07,31,03,02,17.60
2014,07,31,03,03,17.60
2014,07,31,03,04,17.60
2014,07,31,03,05,17.60
2014,07,31,03,06,17.60
2014,07,31,03,07,17.70
2014,07,31,03,08,17.70
2014,07,31,03,09,17.70
2014,07,31,03,10,17.80
2014,07,31,03,11,17.80
2014,07,31,03,12,17.90
2014,07,31,03,13,18.00
2014,07,31,03,14,18.10
2014,07,31,03,15,18.20
2014,07,31,03,16,18.30
2014,07,31,03,17,18.40
2014,07,31,03,18,18.50
2014,07,31,03,19,18.60
2014,07,31,03,20,18.60
2014,07,31,03,21,18.60
2014,07,31,03,22,18.60
2014,07,31,03,23,18.50
2014,07,31,03,24,18.50
2014,07,31,03,25,18.40
2014,07,31,03,26,18.40
2014,07,31,03,27,18.30
2014,07,31,03,28,18.30
2014,07,31,03,29,18.20
2014,07,31,03,30,18.20
2014,07,31,03,31,18.10
2014,07,31,03,32,18.10
2014,07,31,03,33,18.10
2014,07,31,03,34,18.10
2014,07,31,03,35,18.10
2014,07,31,03,36,18.20
2014,07,31,03,37,18.20
2014,07,31,03,38,18.20
2014,07,31,03,39,18.30
2014,07,31,03,40,18.30
2014,07,31,03,41,18.30
2014,07,31,03,42,18.30
2014,07,31,03,43,18.40
2014,07,31,03,44,18.40
2014,07,31,03,45,18.40
2014,07,31,03,46,18.40
2014,07,31,03,47,18.40
2014,07,31,03,48,18.40
2014,07,31,03,49,18.40
2014,07,31,03,50,18.40
2014,07,31,03,51,18.40
2014,07,31,03,52,18.40
2014,07,31,03,53,18.40
2014,07,31,03,54,18.40
2014,07,31,03,55,18.30
2014,07,31,03,56,18.30
2014,07,31,03,57,18.20
2014,07,31,03,58,18.20
2014,07,31,03,59,18.10
2014,07,31,04,00,18.00
2014,07,31,04,01,18.00
2014,07,31,04,02,17.90
2014,07,31,04,03,17.80
2014,07,31,04,04,17.80
2014,07,31,04,05,17.70
2014,07,31,04,06,17.70
2014,07,31,04,07,17.60
2014,07,31,04,08,17.50
2014,07,31,04,09,17.40
2014,07,31,04,10,17.40
2014,07,31,04,11,17.30
2014,07,31,04,12,17.20
2014,07,31,04,13,17.20
2014,07,31,04,14,17.20
2014,07,31,04,15,17.20
2014,07,31,04,16,17.30
2014,07,31,04,17,17.40
2014,07,31,04,18,17.50
2014,07,31,04,19,17.60
2014,07,31,04,20,17.60
2014,07,31,04,21,17.70
2014,07,31,04,22,17.80
2014,07,31,04,23,17.80
2014,07,31,04,24,17.90
2014,07,31,04,25,18.00
2014,07,31,04,26,18.00
2014,07,31,04,27,18.10
2014,07,31,04,28,18.10
2014,07,31,04,29,18.10
2014,07,31,04,30,18.10
2014,07,31,04,31,18.10
2014,07,31,04,32,18.10
2014,07,31,04,33,18.00
2014,07,31,04,34,18.00
2014,07,31,04,35,18.00
2014,07,31,04,36,17.90
2014,07,31,04,37,17.90
2014,07,31,04,38,17.80
2014,07,31,04,39,17.80
2014,07,31,04,40,17.70
2014,07,31,04,41,17.70
2014,07,31,04,42,17.70
2014,07,31,04,43,17.70
2014,07,31,04,44,17.60
2014,07,31,04,45,17.60
2014,07,31,04,46,17.60
2014,07,31,04,47,17.60
2014,07,31,04,48,17.60
2014,07,31,04,49,17.60
2014,07,31,04,50,17.60
2014,07,31,04,51,17.50
2014,07,31,04,52,17.50
2014,07,31,04,53,17.50
2014,07,31,04,54,17.50
2014,07,31,04,55,17.40
2014,07,31,04,56,17.40
2014,07,31,04,57,17.40
2014,07,31,04,58,17.40
2014,07,31,04,59,17.40
2014,07,31,05,00,17.40
2014,07,31,05,01,17.30
2014,07,31,05,02,17.30
2014,07,31,05,03,17.30
2014,07,31,05,04,17.30
2014,07,31,05,05,17.20
2014,07,31,05,06,17.20
2014,07,31,05,07,17.20
2014,07,31,05,08,17.20
2014,07,31,05,09,17.10
2014,07,31,05,10,17.10
2014,07,31,05,11,17.10
2014,07,31,05,12,17.10
2014,07,31,05,13,17.00
2014,07,31,05,14,17.00
2014,07,31,05,15,16.90
2014,07,31,05,16,16.90
2014,07,31,05,17,16.80
2014,07,31,05,18,16.80
2014,07,31,05,19,16.70
2014,07,31,05,20,16.70
2014,07,31,05,21,16.60
2014,07,31,05,22,16.60
2014,07,31,05,23,16.60
2014,07,31,05,24,16.60
2014,07,31,05,25,16.60
2014,07,31,05,26,16.60
2014,07,31,05,27,16.60
2014,07,31,05,28,16.60
2014,07,31,05,29,16.60
2014,07,31,05,30,16.70
2014,07,31,05,31,16.70
2014,07,31,05,32,16.70
2014,07,31,05,33,16.70
2014,07,31,05,34,16.70
2014,07,31,05,35,16.70
2014,07,31,05,36,16.70
2014,07,31,05,37,16.70
2014,07,31,05,38,16.60
2014,07,31,05,39,16.50
2014,07,31,05,40,16.40
2014,07,31,05,41,16.30
2014,07,31,05,42,16.20
2014,07,31,05,43,16.10
2014,07,31,05,44,16.00
2014,07,31,05,45,16.00
2014,07,31,05,46,15.90
2014,07,31,05,47,15.80
2014,07,31,05,48,15.80
2014,07,31,05,49,15.70
2014,07,31,05,50,15.70
2014,07,31,05,51,15.70
2014,07,31,05,52,15.60
2014,07,31,05,53,15.60
2014,07,31,05,54,15.50
2014,07,31,05,55,15.40
2014,07,31,05,56,15.40
2014,07,31,05,57,15.30
2014,07,31,05,58,15.30
2014,07,31,05,59,15.20
2014,07,31,06,00,15.20
2014,07,31,06,01,15.20
2014,07,31,06,02,15.20
2014,07,31,06,03,15.20
2014,07,31,06,04,15.30
2014,07,31,06,05,15.30
2014,07,31,06,06,15.30
2014,07,31,06,07,15.30
2014,07,31,06,08,15.30
2014,07,31,06,09,15.40
2014,07,31,06,10,15.40
2014,07,31,06,11,15.40
2014,07,31,06,12,15.50
2014,07,31,06,13,15.50
2014,07,31,06,14,15.50
2014,07,31,06,15,15.60
2014,07,31,06,16,15.60
2014,07,31,06,17,15.60
2014,07,31,06,18,15.60
2014,07,31,06,19,15.60
2014,07,31,06,20,15.60
2014,07,31,06,21,15.60
2014,07,31,06,22,15.50
2014,07,31,06,23,15.50
2014,07,31,06,24,15.40
2014,07,31,06,25,15.40
2014,07,31,06,26,15.40
2014,07,31,06,27,15.40
2014,07,31,06,28,15.30
2014,07,31,06,29,15.30
2014,07,31,06,30,15.30
2014,07,31,06,31,15.40
2014,07,31,06,32,15.40
2014,07,31,06,33,15.40
2014,07,31,06,34,15.40
2014,07,31,06,35,15.40
2014,07,31,06,36,15.40
2014,07,31,06,37,15.50
2014,07,31,06,38,15.50
2014,07,31,06,39,15.50
2014,07,31,06,40,15.60
2014,07,31,06,41,15.60
2014,07,31,06,42,15.70
2014,07,31,06,43,15.70
2014,07,31,06,44,15.80
2014,07,31,06,45,15.80
2014,07,31,06,46,15.90
2014,07,31,06,47,15.90
2014,07,31,06,48,16.00
2014,07,31,06,49,16.10
2014,07,31,06,50,16.10
2014,07,31,06,51,16.20
2014,07,31,06,52,16.30
2014,07,31,06,53,16.40
2014,07,31,06,54,16.50
2014,07,31,06,55,16.60
2014,07,31,06,56,16.70
2014,07,31,06,57,16.80
2014,07,31,06,58,16.90
2014,07,31,06,59,17.00
2014,07,31,07,00,17.10
2014,07,31,07,01,17.20
2014,07,31,07,02,17.30
2014,07,31,07,03,17.30
2014,07,31,07,04,17.50
2014,07,31,07,05,17.60
2014,07,31,07,06,17.70
2014,07,31,07,07,17.80
2014,07,31,07,08,17.90
2014,07,31,07,09,18.00
2014,07,31,07,10,18.10
2014,07,31,07,11,18.20
2014,07,31,07,12,18.30
2014,07,31,07,13,18.40
2014,07,31,07,14,18.50
2014,07,31,07,15,18.60
2014,07,31,07,16,18.70
2014,07,31,07,17,18.80
2014,07,31,07,18,18.90
2014,07,31,07,19,19.00
2014,07,31,07,20,19.10
2014,07,31,07,21,19.20
2014,07,31,07,22,19.30
2014,07,31,07,23,19.40
2014,07,31,07,24,19.50
2014,07,31,07,25,19.60
2014,07,31,07,26,19.70
2014,07,31,07,27,19.80
2014,07,31,07,28,19.80
2014,07,31,07,29,19.90
2014,07,31,07,30,19.90
2014,07,31,07,31,19.90
2014,07,31,07,32,20.00
2014,07,31,07,33,20.00
2014,07,31,07,34,20.10
2014,07,31,07,35,20.10
2014,07,31,07,36,20.10
2014,07,31,07,37,20.20
2014,07,31,07,38,20.20
2014,07,31,07,39,20.20
2014,07,31,07,40,20.20
2014,07,31,07,41,20.20
2014,07,31,07,42,20.20
2014,07,31,07,43,20.20
2014,07,31,07,44,20.20
2014,07,31,07,45,20.20
2014,07,31,07,46,20.20
2014,07,31,07,47,20.20
2014,07,31,07,48,20.20
2014,07,31,07,49,20.10
2014,07,31,07,50,20.10
2014,07,31,07,51,20.10
2014,07,31,07,52,20.10
2014,07,31,07,53,20.10
2014,07,31,07,54,20.10
2014,07,31,07,55,20.10
2014,07,31,07,56,20.10
2014,07,31,07,57,20.10
2014,07,31,07,58,20.20
2014,07,31,07,59,20.20
2014,07,31,08,00,20.20
2014,07,31,08,01,20.30
2014,07,31,08,02,20.30
2014,07,31,08,03,20.40
2014,07,31,08,04,20.40
2014,07,31,08,05,20.50
2014,07,31,08,06,20.50
2014,07,31,08,07,20.60
2014,07,31,08,08,20.60
2014,07,31,08,09,20.60
2014,07,31,08,10,20.60
2014,07,31,08,11,20.60
2014,07,31,08,12,20.70
2014,07,31,08,13,20.70
2014,07,31,08,14,20.80
2014,07,31,08,15,20.80
2014,07,31,08,16,20.70
2014,07,31,08,17,20.70
2014,07,31,08,18,20.70
2014,07,31,08,19,20.60
2014,07,31,08,20,20.50
2014,07,31,08,21,20.40
2014,07,31,08,22,20.40
2014,07,31,08,23,20.30
2014,07,31,08,24,20.30
2014,07,31,08,25,20.30
2014,07,31,08,26,20.30
2014,07,31,08,27,20.30
2014,07,31,08,28,20.30
2014,07,31,08,29,20.30
2014,07,31,08,30,20.40
2014,07,31,08,31,20.50
2014,07,31,08,32,20.50
2014,07,31,08,33,20.60
2014,07,31,08,34,20.70
2014,07,31,08,35,20.70
2014,07,31,08,36,20.80
2014,07,31,08,37,20.80
2014,07,31,08,38,20.90
2014,07,31,08,39,20.90
2014,07,31,08,40,21.00
2014,07,31,08,41,21.00
2014,07,31,08,42,21.10
2014,07,31,08,43,21.20
2014,07,31,08,44,21.30
2014,07,31,08,45,21.30
2014,07,31,08,46,21.40
2014,07,31,08,47,21.40
2014,07,31,08,48,21.40
2014,07,31,08,49,21.40
2014,07,31,08,50,21.30
2014,07,31,08,51,21.30
2014,07,31,08,52,21.30
2014,07,31,08,53,21.30
2014,07,31,08,54,21.40
2014,07,31,08,55,21.40
2014,07,31,08,56,21.40
2014,07,31,08,57,21.50
2014,07,31,08,58,21.50
2014,07,31,08,59,21.40
2014,07,31,09,00,21.40
2014,07,31,09,01,21.40
2014,07,31,09,02,21.30
2014,07,31,09,03,21.30
2014,07,31,09,04,21.40
2014,07,31,09,05,21.40
2014,07,31,09,06,21.40
2014,07,31,09,07,21.50
2014,07,31,09,08,21.50
2014,07,31,09,09,21.40
2014,07,31,09,10,21.40
2014,07,31,09,11,21.40
2014,07,31,09,12,21.30
2014,07,31,09,13,21.30
2014,07,31,09,14,21.30
2014,07,31,09,15,21.30
2014,07,31,09,16,21.30
2014,07,31,09,17,21.30
2014,07,31,09,18,21.30
2014,07,31,09,19,21.30
2014,07,31,09,20,21.30
2014,07,31,09,21,21.40
2014,07,31,09,22,21.50
2014,07,31,09,23,21.60
2014,07,31,09,24,21.60
2014,07,31,09,25,21.60
2014,07,31,09,26,21.50
2014,07,31,09,27,21.50
2014,07,31,09,28,21.40
2014,07,31,09,29,21.40
2014,07,31,09,30,21.30
2014,07,31,09,31,21.30
2014,07,31,09,32,21.30
2014,07,31,09,33,21.30
2014,07,31,09,34,21.30
2014,07,31,09,35,21.40
2014,07,31,09,36,21.40
2014,07,31,09,37,21.30
2014,07,31,09,38,21.30
2014,07,31,09,39,21.20
2014,07,31,09,40,21.10
2014,07,31,09,41,21.10
2014,07,31,09,42,21.10
2014,07,31,09,43,21.00
2014,07,31,09,44,21.00
2014,07,31,09,45,21.10
2014,07,31,09,46,21.10
2014,07,31,09,47,21.10
2014,07,31,09,48,21.10
2014,07,31,09,49,21.10
2014,07,31,09,50,21.10
2014,07,31,09,51,21.20
2014,07,31,09,52,21.20
2014,07,31,09,53,21.30
2014,07,31,09,54,21.30
2014,07,31,09,55,21.40
2014,07,31,09,56,21.50
2014,07,31,09,57,21.50
2014,07,31,09,58,21.60
2014,07,31,09,59,21.70
2014,07,31,10,00,21.70
2014,07,31,10,01,21.80
2014,07,31,10,02,21.80
2014,07,31,10,03,21.80
2014,07,31,10,04,21.90
2014,07,31,10,05,21.90
2014,07,31,10,06,21.90
2014,07,31,10,07,21.90
2014,07,31,10,08,21.90
2014,07,31,10,09,21.90
2014,07,31,10,10,21.90
2014,07,31,10,11,21.90
2014,07,31,10,12,21.90
2014,07,31,10,13,21.80
2014,07,31,10,14,21.80
2014,07,31,10,15,21.80
2014,07,31,10,16,21.80
2014,07,31,10,17,21.80
2014,07,31,10,18,21.80
2014,07,31,10,19,21.70
2014,07,31,10,20,21.70
2014,07,31,10,21,21.60
2014,07,31,10,22,21.60
2014,07,31,10,23,21.50
2014,07,31,10,24,21.50
2014,07,31,10,25,21.50
2014,07,31,10,26,21.50
2014,07,31,10,27,21.50
2014,07,31,10,28,21.50
2014,07,31,10,29,21.50
2014,07,31,10,30,21.60
2014,07,31,10,31,21.60
2014,07,31,10,32,21.70
2014,07,31,10,33,21.80
2014,07,31,10,34,21.80
2014,07,31,10,35,21.80
2014,07,31,10,36,21.90
2014,07,31,10,37,21.90
2014,07,31,10,38,21.90
2014,07,31,10,39,21.90
2014,07,31,10,40,21.90
2014,07,31,10,41,22.00
2014,07,31,10,42,22.00
2014,07,31,10,43,21.90
2014,07,31,10,44,21.90
2014,07,31,10,45,21.80
2014,07,31,10,46,21.80
2014,07,31,10,47,21.80
2014,07,31,10,48,21.90
2014,07,31,10,49,22.00
2014,07,31,10,50,22.10
2014,07,31,10,51,22.10
2014,07,31,10,52,22.00
2014,07,31,10,53,22.00
2014,07,31,10,54,21.90
2014,07,31,10,55,21.90
2014,07,31,10,56,21.90
2014,07,31,10,57,21.90
2014,07,31,10,58,21.90
2014,07,31,10,59,21.90
2014,07,31,11,00,22.00
2014,07,31,11,01,22.00
2014,07,31,11,02,22.10
2014,07,31,11,03,22.20
2014,07,31,11,04,22.30
2014,07,31,11,05,22.30
2014,07,31,11,06,22.30
2014,07,31,11,07,22.30
2014,07,31,11,08,22.40
2014,07,31,11,09,22.40
2014,07,31,11,10,22.40
2014,07,31,11,11,22.40
2014,07,31,11,12,22.50
2014,07,31,11,13,22.50
2014,07,31,11,14,22.50
2014,07,31,11,15,22.50
2014,07,31,11,16,22.50
2014,07,31,11,17,22.40
2014,07,31,11,18,22.40
2014,07,31,11,19,22.40
2014,07,31,11,20,22.40
2014,07,31,11,21,22.40
2014,07,31,11,22,22.50
2014,07,31,11,23,22.50
2014,07,31,11,24,22.50
2014,07,31,11,25,22.50
2014,07,31,11,26,22.50
2014,07,31,11,27,22.40
2014,07,31,11,28,22.30
2014,07,31,11,29,22.40
2014,07,31,11,30,22.40
2014,07,31,11,31,22.40
2014,07,31,11,32,22.40
2014,07,31,11,33,22.40
2014,07,31,11,34,22.40
2014,07,31,11,35,22.40
2014,07,31,11,36,22.40
2014,07,31,11,37,22.40
2014,07,31,11,38,22.40
2014,07,31,11,39,22.50
2014,07,31,11,40,22.50
2014,07,31,11,41,22.50
2014,07,31,11,42,22.40
2014,07,31,11,43,22.40
2014,07,31,11,44,22.40
2014,07,31,11,45,22.40
2014,07,31,11,46,22.40
2014,07,31,11,47,22.40
2014,07,31,11,48,22.40
2014,07,31,11,49,22.40
2014,07,31,11,50,22.40
2014,07,31,11,51,22.30
2014,07,31,11,52,22.30
2014,07,31,11,53,22.30
2014,07,31,11,54,22.30
2014,07,31,11,55,22.40
2014,07,31,11,56,22.30
2014,07,31,11,57,22.30
2014,07,31,11,58,22.30
2014,07,31,11,59,22.40
2014,07,31,12,00,22.40
2014,07,31,12,01,22.40
2014,07,31,12,02,22.40
2014,07,31,12,03,22.40
2014,07,31,12,04,22.40
2014,07,31,12,05,22.40
2014,07,31,12,06,22.40
2014,07,31,12,07,22.40
2014,07,31,12,08,22.50
2014,07,31,12,09,22.60
2014,07,31,12,10,22.60
2014,07,31,12,11,22.70
2014,07,31,12,12,22.80
2014,07,31,12,13,22.80
2014,07,31,12,14,22.80
2014,07,31,12,15,22.80
2014,07,31,12,16,22.80
2014,07,31,12,17,22.80
2014,07,31,12,18,22.80
2014,07,31,12,19,22.80
2014,07,31,12,20,22.80
2014,07,31,12,21,22.90
2014,07,31,12,22,23.00
2014,07,31,12,23,23.10
2014,07,31,12,24,23.20
2014,07,31,12,25,23.20
2014,07,31,12,26,23.30
2014,07,31,12,27,23.20
2014,07,31,12,28,23.20
2014,07,31,12,29,23.10
2014,07,31,12,30,23.10
2014,07,31,12,31,23.10
2014,07,31,12,32,23.20
2014,07,31,12,33,23.20
2014,07,31,12,34,23.20
2014,07,31,12,35,23.20
2014,07,31,12,36,23.20
2014,07,31,12,37,23.20
2014,07,31,12,38,23.30
2014,07,31,12,39,23.30
2014,07,31,12,40,23.30
2014,07,31,12,41,23.40
2014,07,31,12,42,23.40
2014,07,31,12,43,23.50
2014,07,31,12,44,23.40
2014,07,31,12,45,23.40
2014,07,31,12,46,23.40
2014,07,31,12,47,23.40
2014,07,31,12,48,23.40
2014,07,31,12,49,23.40
2014,07,31,12,50,23.40
2014,07,31,12,51,23.40
2014,07,31,12,52,23.50
2014,07,31,12,53,23.50
2014,07,31,12,54,23.60
2014,07,31,12,55,23.60
2014,07,31,12,56,23.60
2014,07,31,12,57,23.70
2014,07,31,12,58,23.70
2014,07,31,12,59,23.70
2014,07,31,13,00,23.70
2014,07,31,13,01,23.70
2014,07,31,13,02,23.70
2014,07,31,13,03,23.80
2014,07,31,13,04,23.80
2014,07,31,13,05,23.80
2014,07,31,13,06,23.80
2014,07,31,13,07,23.80
2014,07,31,13,08,23.80
2014,07,31,13,09,23.90
2014,07,31,13,10,23.90
2014,07,31,13,11,24.00
2014,07,31,13,12,24.10
2014,07,31,13,13,24.20
2014,07,31,13,14,24.20
2014,07,31,13,15,24.30
2014,07,31,13,16,24.30
2014,07,31,13,17,24.40
2014,07,31,13,18,24.30
2014,07,31,13,19,24.30
2014,07,31,13,20,24.30
2014,07,31,13,21,24.30
2014,07,31,13,22,24.30
2014,07,31,13,23,24.30
2014,07,31,13,24,24.30
2014,07,31,13,25,24.30
2014,07,31,13,26,24.30
2014,07,31,13,27,24.40
2014,07,31,13,28,24.50
2014,07,31,13,29,24.60
2014,07,31,13,30,24.70
2014,07,31,13,31,24.80
2014,07,31,13,32,24.90
2014,07,31,13,33,24.90
2014,07,31,13,34,24.90
2014,07,31,13,35,24.90
2014,07,31,13,36,24.90
2014,07,31,13,37,24.90
2014,07,31,13,38,24.90
2014,07,31,13,39,24.90
2014,07,31,13,40,24.90
2014,07,31,13,41,24.90
2014,07,31,13,42,24.90
2014,07,31,13,43,24.80
2014,07,31,13,44,24.80
2014,07,31,13,45,24.90
2014,07,31,13,46,25.00
2014,07,31,13,47,25.00
2014,07,31,13,48,25.00
2014,07,31,13,49,24.90
2014,07,31,13,50,24.80
2014,07,31,13,51,24.70
2014,07,31,13,52,24.70
2014,07,31,13,53,24.80
2014,07,31,13,54,24.80
2014,07,31,13,55,24.80
2014,07,31,13,56,24.80
2014,07,31,13,57,24.80
2014,07,31,13,58,24.90
2014,07,31,13,59,24.90
2014,07,31,14,00,24.90
2014,07,31,14,01,24.80
2014,07,31,14,02,24.80
2014,07,31,14,03,24.80
2014,07,31,14,04,24.80
2014,07,31,14,05,24.80
2014,07,31,14,06,24.80
2014,07,31,14,07,24.80
2014,07,31,14,08,24.80
2014,07,31,14,09,24.90
2014,07,31,14,10,24.90
2014,07,31,14,11,24.80
2014,07,31,14,12,24.70
2014,07,31,14,13,24.60
2014,07,31,14,14,24.60
2014,07,31,14,15,24.60
2014,07,31,14,16,24.60
2014,07,31,14,17,24.60
2014,07,31,14,18,24.60
2014,07,31,14,19,24.70
2014,07,31,14,20,24.70
2014,07,31,14,21,24.70
2014,07,31,14,22,24.80
2014,07,31,14,23,24.80
2014,07,31,14,24,24.90
2014,07,31,14,25,25.00
2014,07,31,14,26,25.00
2014,07,31,14,27,25.10
2014,07,31,14,28,25.10
2014,07,31,14,29,25.10
2014,07,31,14,30,25.10
2014,07,31,14,31,25.20
2014,07,31,14,32,25.20
2014,07,31,14,33,25.20
2014,07,31,14,34,25.20
2014,07,31,14,35,25.20
2014,07,31,14,36,25.20
2014,07,31,14,37,25.20
2014,07,31,14,38,25.30
2014,07,31,14,39,25.40
2014,07,31,14,40,25.50
2014,07,31,14,41,25.60
2014,07,31,14,42,25.70
2014,07,31,14,43,25.80
2014,07,31,14,44,25.80
2014,07,31,14,45,25.80
2014,07,31,14,46,25.80
2014,07,31,14,47,25.80
2014,07,31,14,48,25.80
2014,07,31,14,49,25.70
2014,07,31,14,50,25.80
2014,07,31,14,51,25.80
2014,07,31,14,52,25.80
2014,07,31,14,53,25.80
2014,07,31,14,54,25.90
2014,07,31,14,55,25.90
2014,07,31,14,56,25.80
2014,07,31,14,57,25.80
2014,07,31,14,58,25.80
2014,07,31,14,59,25.80
2014,07,31,15,00,25.80
2014,07,31,15,01,25.80
2014,07,31,15,02,25.80
2014,07,31,15,03,25.80
2014,07,31,15,04,25.70
2014,07,31,15,05,25.70
2014,07,31,15,06,25.70
2014,07,31,15,07,25.70
2014,07,31,15,08,25.80
2014,07,31,15,09,25.90
2014,07,31,15,10,25.90
2014,07,31,15,11,26.00
2014,07,31,15,12,26.10
2014,07,31,15,13,26.10
2014,07,31,15,14,26.10
2014,07,31,15,15,26.20
2014,07,31,15,16,26.30
2014,07,31,15,17,26.40
2014,07,31,15,18,26.50
2014,07,31,15,19,26.60
2014,07,31,15,20,26.70
2014,07,31,15,21,26.70
2014,07,31,15,22,26.70
2014,07,31,15,23,26.60
2014,07,31,15,24,26.60
2014,07,31,15,25,26.60
2014,07,31,15,26,26.60
2014,07,31,15,27,26.60
2014,07,31,15,28,26.60
2014,07,31,15,29,26.60
2014,07,31,15,30,26.70
2014,07,31,15,31,26.70
2014,07,31,15,32,26.70
2014,07,31,15,33,26.70
2014,07,31,15,34,26.70
2014,07,31,15,35,26.70
2014,07,31,15,36,26.60
2014,07,31,15,37,26.60
2014,07,31,15,38,26.50
2014,07,31,15,39,26.40
2014,07,31,15,40,26.40
2014,07,31,15,41,26.40
2014,07,31,15,42,26.40
2014,07,31,15,43,26.40
2014,07,31,15,44,26.40
2014,07,31,15,45,26.40
2014,07,31,15,46,26.40
2014,07,31,15,47,26.30
2014,07,31,15,48,26.30
2014,07,31,15,49,26.20
2014,07,31,15,50,26.20
2014,07,31,15,51,26.20
2014,07,31,15,52,26.10
2014,07,31,15,53,26.20
2014,07,31,15,54,26.30
2014,07,31,15,55,26.30
2014,07,31,15,56,26.30
2014,07,31,15,57,26.30
2014,07,31,15,58,26.30
2014,07,31,15,59,26.30
2014,07,31,16,00,26.30
2014,07,31,16,01,26.30
2014,07,31,16,02,26.30
2014,07,31,16,03,26.30
2014,07,31,16,04,26.30
2014,07,31,16,05,26.40
2014,07,31,16,06,26.40
2014,07,31,16,07,26.40
2014,07,31,16,08,26.40
2014,07,31,16,09,26.40
2014,07,31,16,10,26.30
2014,07,31,16,11,26.30
2014,07,31,16,12,26.30
2014,07,31,16,13,26.30
2014,07,31,16,14,26.30
2014,07,31,16,15,26.40
2014,07,31,16,16,26.40
2014,07,31,16,17,26.40
2014,07,31,16,18,26.40
2014,07,31,16,19,26.40
2014,07,31,16,20,26.40
2014,07,31,16,21,26.50
2014,07,31,16,22,26.50
2014,07,31,16,23,26.50
2014,07,31,16,24,26.40
2014,07,31,16,25,26.30
2014,07,31,16,26,26.30
2014,07,31,16,27,26.20
2014,07,31,16,28,26.10
2014,07,31,16,29,26.10
2014,07,31,16,30,26.10
2014,07,31,16,31,26.10
2014,07,31,16,32,26.20
2014,07,31,16,33,26.20
2014,07,31,16,34,26.30
2014,07,31,16,35,26.30
2014,07,31,16,36,26.30
2014,07,31,16,37,26.30
2014,07,31,16,38,26.40
2014,07,31,16,39,26.40
2014,07,31,16,40,26.40
2014,07,31,16,41,26.50
2014,07,31,16,42,26.50
2014,07,31,16,43,26.60
2014,07,31,16,44,26.60
2014,07,31,16,45,26.60
2014,07,31,16,46,26.60
2014,07,31,16,47,26.60
2014,07,31,16,48,26.70
2014,07,31,16,49,26.80
2014,07,31,16,50,26.80
2014,07,31,16,51,26.80
2014,07,31,16,52,26.80
2014,07,31,16,53,26.80
2014,07,31,16,54,26.80
2014,07,31,16,55,26.80
2014,07,31,16,56,26.80
2014,07,31,16,57,26.90
2014,07,31,16,58,26.90
2014,07,31,16,59,27.00
2014,07,31,17,00,27.10
2014,07,31,17,01,27.10
2014,07,31,17,02,27.10
2014,07,31,17,03,27.20
2014,07,31,17,04,27.20
2014,07,31,17,05,27.30
2014,07,31,17,06,27.30
2014,07,31,17,07,27.30
2014,07,31,17,08,27.30
2014,07,31,17,09,27.40
2014,07,31,17,10,27.40
2014,07,31,17,11,27.40
2014,07,31,17,12,27.50
2014,07,31,17,13,27.50
2014,07,31,17,14,27.60
2014,07,31,17,15,27.60
2014,07,31,17,16,27.60
2014,07,31,17,17,27.60
2014,07,31,17,18,27.60
2014,07,31,17,19,27.50